MOHAMMED VI-B (43717 NORAD) Tracking and Keplerian Element Data

This shows tracking and keplerian element data for the satellite.

Feedback or suggestion? Click here.




ElementValue
Catalog43717
NameMOHAMMED VI-B
Epoch Orbit286
Epoch Day344.46072965
Epoch Year2018
RAAN54.2131
Inclination97.9568
Eccentricity0.0001464
Argument of Perigee89.7975
Mean Anonmoly270.3403
Mean Motion14.77073536
Decay Rate6.8E-07
L11 43717U 18095A 18344.46072965 .00000068 00000-0 16865-4 0 9998
L22 43717 97.9568 54.2131 0001464 89.7975 270.3403 14.77073536 2862

Live tracking and technical data element details for MOHAMMED VI-B (NORAD 43717). MOHAMMED VI-B can be tracked NOW for your location showing map with azimuth and elevation plus other details from your city location.

Track the satellite on the map from your city or location and see movement details for azimuth, elevation, latitude, longitude, range, height, and movement on the map or in text.







IsCatalogInMostPopularTable: catalog: 43717, numindb: 18
Update: records affected: 1



GetName: 43717 MOHAMMED VI-B

Hit Count: updated at: Tue, 11 Dec 2018 02:06:19 GMT